(509882) = 2009 BN64

Discovered at Mount Lemmon on 2008-11-24 by Mt. Lemmon Survey.

Orbit

Orbit type: Main Belt

Note: WebGL enabled browser required.

epoch2024-03-31.0
epoch JD2460400.5
perihelion date2022-02-06.24944
perihelion JD2459616.74944
argument of perihelion (°)300.05517
ascending node (°)121.10553
inclination (°)8.76913
eccentricity0.2127114
perihelion distance (AU)2.1663929
Tisserand w.r.t. Jupiter3.3
ΔV w.r.t. Earth (km/sec)9.7
semimajor axis (AU)2.7517136
mean anomaly (°)169.22980
mean daily motion (°/day)0.21592300
aphelion distance (AU)3.337
period (years)4.56
P-vector [x]0.47369174
P-vector [y]0.85138537
P-vector [z]0.22529779
Q-vector [x]-0.87096339
Q-vector [y]0.41495484
Q-vector [z]0.26312592
absolute magnitude17.26
phase slope0.15
uncertainty0
referenceMPEC 2024-C115
observations used211
oppositions8
arc length (days)5256
first opposition used2008
last opposition used2023
residual rms (arc-secs)0.74
perturbers coarse indicatorM-v
perturbers precise indicator003Ek
first observation date used2008-11-24.0
last observation date used2023-04-16.0
computer nameMPCLINUX
JD of orbit computation2458144.129590
perihelion JD uncertainty (days)7.6754E-05
argument of perihelion uncertainty (°)3.3891E-05
ascending node uncertainty (°)2.7790E-05
inclination uncertainty (°)7.1951E-06
eccentricity uncertainty 3.8053E-08
perihelion distance uncertainty (AU)1.0840E-07
Minimum Orbit Intersection Distances (in AU)
for orbit epoch: 2460200.5, reference: E2024-CB5
Mercury1.85995
Venus1.45193
Earth1.19389
Mars0.66919
Jupiter2.03687
Saturn6.60107
Uranus15.4641
Neptune27.2361

Observations

213 total observations over interval: 2008 11 24.44859 – 2023 04 16.285626
These data are available for download (format description).

Date (UT) J2000 RA J2000 Dec Magn Location Ref
2008 11 24.44859 09 35 38.29 +13 32 51.2 21.4 V G96 – Mt. Lemmon Survey MPS 276618
2008 11 24.45693 09 35 38.65 +13 32 51.0 21.4 V G96 – Mt. Lemmon Survey MPS 276618
2008 11 24.46531 09 35 39.04 +13 32 50.8 21.5 V G96 – Mt. Lemmon Survey MPS 276618
2008 11 24.47375 09 35 39.44 +13 32 49.9 21.4 V G96 – Mt. Lemmon Survey MPS 276618
2008 12 29.36476 09 47 56.65 +14 41 36.5 20.9 V G96 – Mt. Lemmon Survey MPS 276361
2008 12 29.37096 09 47 56.61 +14 41 38.6 20.9 V G96 – Mt. Lemmon Survey MPS 276361
2008 12 29.37708 09 47 56.47 +14 41 40.2 22.2 V G96 – Mt. Lemmon Survey MPS 276361
2008 12 29.38331 09 47 56.43 +14 41 42.5 21.9 V G96 – Mt. Lemmon Survey MPS 276361
2009 01 16.31469 09 40 36.12 +16 40 17.7 20.3 V 691 – Steward Observatory, Kitt Peak-Spacewatch MPS 276361
2009 01 16.33280 09 40 35.39 +16 40 24.5 19.7 V 691 – Steward Observatory, Kitt Peak-Spacewatch MPS 276361
2009 01 16.35092 09 40 34.73 +16 40 34.6 20.1 V 691 – Steward Observatory, Kitt Peak-Spacewatch MPS 276361
2009 01 20.35366 09 37 49.12 +17 12 29.2 20.3 V 691 – Steward Observatory, Kitt Peak-Spacewatch MPS 272983
2009 01 20.37203 09 37 48.35 +17 12 38.5 20.2 V 691 – Steward Observatory, Kitt Peak-Spacewatch MPS 272983
2009 01 20.39018 09 37 47.46 +17 12 47.6 20.6 V 691 – Steward Observatory, Kitt Peak-Spacewatch MPS 272984
2009 01 26.25590 09 33 11.97 +18 01 14.6   691 – Steward Observatory, Kitt Peak-Spacewatch MPS 272984
2009 01 26.27421 09 33 11.00 +18 01 23.7   691 – Steward Observatory, Kitt Peak-Spacewatch MPS 272984
2009 01 26.29234 09 33 10.12 +18 01 32.8   691 – Steward Observatory, Kitt Peak-Spacewatch MPS 272984
2009 01 31.24960 09 28 55.06 +18 42 51.6 20.0 V 691 – Steward Observatory, Kitt Peak-Spacewatch MPS 276361
2009 01 31.26770 09 28 54.08 +18 43 00.6 20.1 V 691 – Steward Observatory, Kitt Peak-Spacewatch MPS 276361
2009 01 31.28606 09 28 53.07 +18 43 09.6 20.2 V 691 – Steward Observatory, Kitt Peak-Spacewatch MPS 276361
2012 10 20.425964 03 21 16.849 +02 32 10.74 20.2 w F51 – Pan-STARRS 1, Haleakala MPS 504048
2012 10 20.439960 03 21 16.324 +02 32 06.60 20.3 w F51 – Pan-STARRS 1, Haleakala MPS 504048
2012 10 20.454005 03 21 15.811 +02 32 02.63 20.1 w F51 – Pan-STARRS 1, Haleakala MPS 504048
2012 10 20.468083 03 21 15.282 +02 31 58.48 19.8 w F51 – Pan-STARRS 1, Haleakala MPS 504048
2014 02 26.56655 12 42 52.198 +06 53 22.05 21.8 w F51 – Pan-STARRS 1, Haleakala MPS 504048
2014 02 26.57877 12 42 51.773 +06 53 27.03 21.6 w F51 – Pan-STARRS 1, Haleakala MPS 504048
2014 02 26.59103 12 42 51.379 +06 53 32.56 21.4 w F51 – Pan-STARRS 1, Haleakala MPS 504048
2014 02 26.60326 12 42 50.964 +06 53 37.84 21.3 w F51 – Pan-STARRS 1, Haleakala MPS 504048
2014 02 27.50218 12 42 21.835 +07 00 06.84 21.4 w F51 – Pan-STARRS 1, Haleakala MPS 504048
2014 02 27.51448 12 42 21.405 +07 00 12.06 21.5 w F51 – Pan-STARRS 1, Haleakala MPS 504048
2014 02 27.52682 12 42 20.966 +07 00 17.43 21.5 w F51 – Pan-STARRS 1, Haleakala MPS 504048
2016 07 07.53088 22 14 09.509 -14 12 51.43 21.6 w F51 – Pan-STARRS 1, Haleakala MPS 717424
2016 07 07.54215 22 14 09.385 -14 12 54.36 21.7 w F51 – Pan-STARRS 1, Haleakala MPS 717424
2016 07 07.55338 22 14 09.290 -14 12 57.46 21.5 w F51 – Pan-STARRS 1, Haleakala MPS 717424
2016 07 07.56460 22 14 09.196 -14 13 00.61 21.8 w F51 – Pan-STARRS 1, Haleakala MPS 717424
2016 07 14.41854 22 12 45.12 -14 47 09.1 21.0 V G96 – Mt. Lemmon Survey MPS 719422
2016 07 14.42500 22 12 44.96 -14 47 10.6 22.0 V G96 – Mt. Lemmon Survey MPS 719422
2016 07 14.43153 22 12 44.85 -14 47 13.0 21.4 V G96 – Mt. Lemmon Survey MPS 719422
2016 07 14.43797 22 12 44.69 -14 47 14.2 21.7 V G96 – Mt. Lemmon Survey MPS 719422
2016 08 07.49040 21 59 42.238 -17 31 58.03 21.2 w F51 – Pan-STARRS 1, Haleakala MPS 723450
2016 08 07.50136 21 59 41.718 -17 32 03.03 20.7 w F51 – Pan-STARRS 1, Haleakala MPS 723450
2016 08 07.51241 21 59 41.186 -17 32 08.10 20.5 w F51 – Pan-STARRS 1, Haleakala MPS 723450
2017 12 20.48508 08 44 46.87 +16 03 52.1 21.1 V 691 – Steward Observatory, Kitt Peak-Spacewatch MPS 849159
2017 12 20.49489 08 44 46.66 +16 03 55.1 21.0 V 691 – Steward Observatory, Kitt Peak-Spacewatch MPS 849159
2017 12 20.50472 08 44 46.46 +16 03 57.9 20.8 V 691 – Steward Observatory, Kitt Peak-Spacewatch MPS 849159
2018 01 11.71351 08 31 12.93 +18 28 41.1 19.5 R D29 – Purple Mountain Observatory, XuYi Station MPS 861765
2018 01 11.72459 08 31 12.34 +18 28 46.0 20.7 R D29 – Purple Mountain Observatory, XuYi Station MPS 861765
2018 01 13.30350 08 29 50.39 +18 40 49.6 20.3 G G96 – Mt. Lemmon Survey MPS 857733
2018 01 13.30866 08 29 50.11 +18 40 52.0 20.4 G G96 – Mt. Lemmon Survey MPS 857733
2018 01 13.31383 08 29 49.80 +18 40 54.2 20.1 G G96 – Mt. Lemmon Survey MPS 857733
2018 01 13.31899 08 29 49.53 +18 40 56.7 20.0 G G96 – Mt. Lemmon Survey MPS 857733
2018 01 14.69137 08 28 36.59 +18 51 29.8 20.1 R D29 – Purple Mountain Observatory, XuYi Station MPS 861765
2018 01 14.70245 08 28 35.96 +18 51 35.0 20.1 R D29 – Purple Mountain Observatory, XuYi Station MPS 861765
2018 01 14.71353 08 28 35.35 +18 51 40.4 20.1 R D29 – Purple Mountain Observatory, XuYi Station MPS 861765
2018 01 16.35046 08 27 07.029 +19 04 19.55 19.9 w F51 – Pan-STARRS 1, Haleakala MPS 857733
2018 01 16.36207 08 27 06.372 +19 04 25.01 20.1 w F51 – Pan-STARRS 1, Haleakala MPS 857733
2018 01 16.37370 08 27 05.713 +19 04 30.52 20.3 w F51 – Pan-STARRS 1, Haleakala MPS 857733
2018 01 16.38537 08 27 05.046 +19 04 36.02 20.4 w F51 – Pan-STARRS 1, Haleakala MPS 857733
2018 01 23.21905 08 20 44.60 +19 57 11.8 20.1 G 703 – Catalina Sky Survey MPS 861765
2018 01 23.22428 08 20 44.29 +19 57 14.0 19.7 G 703 – Catalina Sky Survey MPS 861765
2018 01 23.23475 08 20 43.51 +19 57 17.5 18.3 G 703 – Catalina Sky Survey MPS 861765
2018 01 23.26574 08 20 41.92 +19 57 32.7 19.8 G G96 – Mt. Lemmon Survey MPS 861765
2018 01 23.27090 08 20 41.61 +19 57 35.3 19.8 G G96 – Mt. Lemmon Survey MPS 861765
2018 01 23.27606 08 20 41.32 +19 57 37.7 20.1 G G96 – Mt. Lemmon Survey MPS 861765
2018 01 23.28122 08 20 40.99 +19 57 40.1 19.9 G G96 – Mt. Lemmon Survey MPS 861765
2018 02 11.20232 08 04 44.86 +22 06 18.7 20.7 G G96 – Mt. Lemmon Survey MPS 870082
2018 02 11.20745 08 04 44.67 +22 06 20.6 20.8 G G96 – Mt. Lemmon Survey MPS 870082
2018 02 11.21258 08 04 44.40 +22 06 22.6 19.9 G G96 – Mt. Lemmon Survey MPS 870082
2018 02 11.21772 08 04 44.19 +22 06 24.1 19.6 G G96 – Mt. Lemmon Survey MPS 870082
2018 02 12.46063 08 03 54.310 +22 13 24.92 20.9 w F51 – Pan-STARRS 1, Haleakala MPS 870082
2018 02 12.47241 08 03 53.827 +22 13 28.77 20.8 w F51 – Pan-STARRS 1, Haleakala MPS 870082
2018 02 12.48420 08 03 53.348 +22 13 32.37 20.4 w F51 – Pan-STARRS 1, Haleakala MPS 870082
2018 02 12.49601 08 03 52.867 +22 13 36.30 20.3 w F51 – Pan-STARRS 1, Haleakala MPS 870082
2019 04 03.50816 14 41 21.830 -02 46 40.59 21.9 w F51 – Pan-STARRS 1, Haleakala MPS 986477
2019 04 03.51987 14 41 21.364 -02 46 36.71 22.1 w F51 – Pan-STARRS 1, Haleakala MPS 986477
2019 04 03.53157 14 41 20.929 -02 46 33.27 21.9 w F51 – Pan-STARRS 1, Haleakala MPS 986477
2019 04 03.54327 14 41 20.476 -02 46 29.66 22.3 w F51 – Pan-STARRS 1, Haleakala MPS 986477
2019 04 08.48732 14 38 05.366 -02 21 18.46 22.1 w F51 – Pan-STARRS 1, Haleakala MPS 990546
2019 04 08.49988 14 38 04.822 -02 21 14.37 21.9 w F51 – Pan-STARRS 1, Haleakala MPS 990546
2019 04 08.51246 14 38 04.280 -02 21 10.69 21.6 w F51 – Pan-STARRS 1, Haleakala MPS 990546
2019 04 08.52509 14 38 03.742 -02 21 06.77 22.1 w F51 – Pan-STARRS 1, Haleakala MPS 990546
2019 04 09.48580 14 37 23.444 -02 16 15.13 21.7 w F51 – Pan-STARRS 1, Haleakala MPS 990546
2019 04 09.49845 14 37 22.880 -02 16 11.24 21.7 w F51 – Pan-STARRS 1, Haleakala MPS 990546
2019 04 09.51110 14 37 22.318 -02 16 07.45 21.7 w F51 – Pan-STARRS 1, Haleakala MPS 990546
2019 04 09.52381 14 37 21.771 -02 16 03.77 21.8 w F51 – Pan-STARRS 1, Haleakala MPS 990546
2021 08 31.534066 02 06 56.190 -00 05 28.65 21.23 w F52 – Pan-STARRS 2, Haleakala MPS 1459509
2021 08 31.546435 02 06 56.367 -00 05 32.11 21.68 w F52 – Pan-STARRS 2, Haleakala MPS 1459509
2021 08 31.558816 02 06 56.545 -00 05 35.98 21.12 w F52 – Pan-STARRS 2, Haleakala MPS 1459509
